Weather WX

World > North America > United States > New Hampshire

Etna, New Hampshire Regional Weather

Lat: 43.69N, Lon: 72.22W
Wx Zone: NHZ005
Warning FLW WEATHER ALERT - (More Info. Click Here) Warning
Feedback

Etna, NH Regional Weather

Expires:201907192100;;316179
ASUS41 KBTV 192011
RWRBTV
VERMONT REGIONAL WEATHER ROUNDUP
NATIONAL WEATHER SERVICE BURLINGTON VT
400 PM EDT FRI JUL 19 2019

NOTE: "FAIR" INDICATES FEW OR NO CLOUDS BELOW 12,000 FEET WITH NO 
SIGNIFICANT WEATHER AND/OR OBSTRUCTIONS TO VISIBILITY.

* THESE REPORTS ARE NOT UNDER NWS QUALITY CONTROL AND/OR DO NOT
  REPORT WEATHER SUCH AS PRECIPITATION AND FOG.


NHZ002-005-011-192100-
_____NEW HAMPSHIRE_
  
CITY           SKY/WX    TMP DP  RH WIND       PRES   REMARKS
LEBANON        PTSUNNY   91  70  49 SW12      29.77F HX  96           
KEENE          FAIR      90  74  59 SW10      29.80S HX  99           
MT WASHINGTON  FOG       59  59 100 W48G55      N/A  VSB 0            
PLYMOUTH       PTSUNNY   87  69  54 SW7       29.75F HX  91           
WHITEFIELD     FAIR      86  68  54 W9G20     29.77F                  

$$

_____REGIONAL QUEBEC LOCATIONS_
  
CITY           SKY/WX    TMP DP  RH WIND       PRES   REMARKS
MONTREAL       PTSUNNY   88  73  62 SW17G24   29.68S HX  96           
QUEBEC CITY    MOSUNNY   84  72  65 SW17      29.63F                  
SHERBROOKE     PTSUNNY   84  72  65 W15       29.71S                  

_____REGIONAL ONTARIO LOCATIONS_
  
CITY           SKY/WX    TMP DP  RH WIND       PRES   REMARKS
OTTAWA         PTSUNNY   88  72  58 W15       29.70F HX  94           

______KEY____VSB  - VISIBILITY IN MILES
WCI  - WIND CHILL INDEX
HX   - HEAT INDEX
$$
NNNN
  

SKY/WX - Weather  TMP - Temperature  DP - Dew Point  RH - Relative Humidity
WIND - Wind Direction/Speed PRES - Barometric Pressure VSB - Visibility
WCI - Wind Chill Index E13G22 Wind - East Wind 13 mph/Gusts of 22 mph